TJS-15

Last updated on Sun Jun 21 2026 00:03:09 GMT+0000 (Coordinated Universal Time)

1 63157U 25045A 26171.33939558 -.00000269 00000+0 00000+0 0 9996 2 63157 0.2944 85.4731 0004649 299.0125 100.6355 1.00270564 4797
UTC large
Height (km)
Speed (km/s)
/
Latitude / Longitude
Inclination (degrees)
Orbital Period (minutes)
Azimuth
Elevation
Range (km)
Doppler Factor

Next 0 passes for location: London (51.5072 / 0.1276)

No passes found over London.
TJS-15